Location: ???????
(55.7027°N, 37.3832°E)
Time: 18:09:19
(UTC+00:00)

Cosmos 2360 Rocket - Pass Details

Date: 14 April 2026
Orbit: 831 x 845 km, 71.0° (Epoch: 16 May)

Event Time Altitude Azimuth Distance (km) Brightness Sun altitude
Rises 17:52:26 0° 236° (SW) 3,381 5.6 -10.6°
Reaches altitude 10° 17:54:58 10° 243° (WSW) 2,452 5.0 -10.9°
Maximum altitude 18:00:22 46° 316° (NW) 1,121 3.4 -11.5°
Drops below altitude 10° 18:05:49 10° 29° (NNE) 2,473 4.7 -12.1°
Sets 18:08:24 0° 36° (NE) 3,412 5.4 -12.4°
